Weather History for Panama City, FL

Change the Weather History Date:

Sunday, December 2, 2012

  Actual Average Record
Temperature  
Mean Temperature 64 °F -  
Max Temperature 76 °F - 78 °F (2014)
Min Temperature 52 °F - 30 °F (2010)
Degree Days  
Heating Degree Days 1    
Cooling Degree Days 0    
Growing Degree Days 14 (Base 50)    
Moisture  
Dew Point 54 °F    
Average Humidity 72    
Maximum Humidity 93    
Minimum Humidity 50    
Precipitation  
Precipitation 0.00 in - 0.00 in (2014)
Month to date precipitation  
Year to date precipitation  
Sea Level Pressure  
Sea Level Pressure 30.29 in    
Wind  
Wind Speed 3 mph (East)    
Max Wind Speed 12 mph    
Max Gust Speed 15 mph    
Visibility 8 miles    
Events      
T = Trace of Precipitation, MM = Missing Value Source: NWS Daily Summary

Daily Weather History Graph

Daily Weather History Graph

Search for Another Location

Airport:

Trip Planner

Search our weather history database for the weather conditions in past years. The results will help you decide how hot, cold, wet, or windy it might be!

Date:

Astronomy

Dec. 02, 2012 Rise Set
Actual Time 7:23 AM EST 5:42 PM EST
Civil Twilight 6:57 AM EST 6:08 PM EST
Nautical Twilight 6:27 AM EST 6:38 PM EST
Astronomical Twilight 5:58 AM EST 7:07 PM EST
Moon 9:22 PM EST (12/2) 10:18 AM EST (12/2)
Length of Visible Light 11h 11m
Length of Day
10h 18m
Waning Gibbous, 86% of the Moon is Illuminated
Dec 2
Waning Gibbous
Dec 6
Last Quarter
Dec 13
New
Dec 20
First Quarter
Dec 28
Full

Hourly Weather History & Observations

Time (EST) Temp. Dew Point Humidity Pressure Visibility Wind Dir Wind Speed Gust Speed Precip Events Conditions
12:53 AM 55.9 °F 52.0 °F 87% 30.30 in 10.0 mi ENE 5.8 mph - N/A   Clear
1:53 AM 54.0 °F 51.1 °F 90% 30.30 in 10.0 mi Calm Calm - N/A   Clear
2:53 AM 53.1 °F 50.0 °F 89% 30.29 in 10.0 mi NNE 3.5 mph - N/A   Clear
3:53 AM 54.0 °F 52.0 °F 93% 30.29 in 10.0 mi NE 4.6 mph - N/A   Clear
4:53 AM 53.1 °F 51.1 °F 93% 30.30 in 9.0 mi NE 3.5 mph - N/A   Clear
5:29 AM 53.6 °F 51.8 °F 94% 30.26 in 9.0 mi ENE 5.8 mph - N/A   Partly Cloudy
5:53 AM 54.0 °F 52.0 °F 93% 30.30 in 9.0 mi ENE 3.5 mph - N/A   Clear
6:53 AM 54.0 °F 52.0 °F 93% 30.31 in 7.0 mi ENE 3.5 mph - N/A   Clear
7:53 AM 53.1 °F 51.1 °F 93% 30.33 in 3.0 mi Calm Calm - N/A   Clear
8:53 AM 57.0 °F 55.0 °F 93% 30.35 in 3.0 mi Calm Calm - N/A   Scattered Clouds
9:53 AM 62.1 °F 57.9 °F 86% 30.37 in 10.0 mi East 5.8 mph - N/A   Partly Cloudy
10:53 AM 69.1 °F 60.1 °F 73% 30.36 in 10.0 mi ENE 3.5 mph - N/A   Partly Cloudy
11:53 AM 73.0 °F 59.0 °F 61% 30.35 in 10.0 mi ESE 8.1 mph - N/A   Clear
12:53 PM 75.0 °F 55.9 °F 51% 30.31 in 10.0 mi SE 5.8 mph - N/A   Scattered Clouds
1:53 PM 75.9 °F 57.9 °F 54% 30.29 in 10.0 mi SSE 9.2 mph - N/A   Scattered Clouds
2:53 PM 75.0 °F 57.9 °F 55% 30.27 in 10.0 mi SSE 9.2 mph - N/A   Scattered Clouds
3:53 PM 75.2 °F 59.0 °F 57% 30.22 in 10.0 mi SSW 6.9 mph - N/A   Partly Cloudy
4:53 PM 73.0 °F 60.1 °F 64% 30.26 in 10.0 mi South 8.1 mph - N/A   Clear
5:53 PM 66.9 °F 61.0 °F 81% 30.27 in 10.0 mi Calm Calm - N/A   Clear
6:53 PM 63.0 °F 60.1 °F 90% 30.27 in 10.0 mi Calm Calm - N/A   Scattered Clouds
7:53 PM 60.1 °F 57.0 °F 90% 30.27 in 6.0 mi Calm Calm - N/A   Clear
8:53 PM 57.9 °F 55.0 °F 90% 30.27 in 10.0 mi Calm Calm - N/A   Clear
9:53 PM 55.0 °F 52.0 °F 89% 30.28 in 10.0 mi Calm Calm - N/A   Clear
10:53 PM 55.0 °F 53.1 °F 93% 30.28 in 10.0 mi Calm Calm - N/A   Scattered Clouds
11:11 PM 55.4 °F 51.8 °F 88% 30.25 in 4.0 mi Calm Calm - N/A   Mostly Cloudy
11:14 PM 53.6 °F 51.8 °F 94% 30.25 in 1.8 mi Calm Calm - N/A   Mostly Cloudy
11:22 PM 53.6 °F 51.8 °F 94% 30.25 in 3.0 mi Calm Calm - N/A   Mostly Cloudy
11:32 PM 53.6 °F 51.8 °F 94% 30.25 in 9.0 mi Calm Calm - N/A   Scattered Clouds
11:45 PM 53.6 °F 51.8 °F 94% 30.25 in 1.8 mi Calm Calm - N/A   Scattered Clouds
11:53 PM 53.1 °F 50.0 °F 89% 30.28 in 2.5 mi Calm Calm - N/A   Mostly Cloudy